Regional Weather Roundup
Issued by NWS

Home | Current Version | Previous Version | Graphics & Text | Print | Product List | Glossary On
Versions: 1 2 3 4 5 6 7 8 9 10 11 12 13 14 15 16 17 18 19 20 21 22 23 24 25 26 27 28 29 30 31 32 33 34 35 36 37 38 39 40 41 42 43 44 45 46 47 48 49 50
000
ASUS43 KDMX 201707
RWRIA

WEATHER ROUNDUP FOR IOWA
NATIONAL WEATHER SERVICE DES MOINES IA
1200 PM CDT SAT SEP 20 2014

NOTE: "FAIR" INDICATES FEW OR NO CLOUDS BELOW 12,000 FEET WITH NO
SIGNIFICANT WEATHER AND/OR OBSTRUCTIONS TO VISIBILITY.

* - THESE STATIONS ARE NOT NWS STATIONS...THUS NOT UNDER NWS
QUALITY CONTROL.  THEY ALSO DO NOT REPORT WEATHER SUCH
AS PRECIPITATION OR FOG.

IAZ001>003-012>014-020>022-031>034-043>046-201800-
   NORTHWEST IOWA

CITY           SKY/WX    TMP DP  RH WIND       PRES   REMARKS
CARROLL *      MOSUNNY   75  66  73 W12       29.89S
CHEROKEE *     SUNNY     75  63  64 W8        29.90F
DENISON *      SUNNY     75  70  83 W8        29.90R
LE MARS *      SUNNY     77  63  61 W7        29.92S
ORANGE CITY *  SUNNY     77  61  57 W8        29.92S
SHELDON *      SUNNY     75  63  64 W8G14     29.90S
SIOUX CITY     SUNNY     76  62  62 NW8       29.93S
SPENCER        SUNNY     76  62  62 W13       29.89F
STORM LAKE *   SUNNY     75  64  69 W13       29.90S
$$

IAZ055>058-069>071-079>083-090>094-201800-
   SOUTHWEST IOWA

CITY           SKY/WX    TMP DP  RH WIND       PRES   REMARKS
ATLANTIC *     MOSUNNY   73  66  78 SW13      29.90F
AUDUBON *      SUNNY     79  57  47 CALM      29.90F HX  80
CLARINDA *     SUNNY     72  66  83 CALM      29.95F
COUNCIL BLFS * SUNNY     77  72  83 SW12      29.91F
CRESTON *      SUNNY     72  68  88 W12       29.95R
HARLAN  *      MOSUNNY   79  66  65 S8        29.93F HX  81
LAMONI         CLOUDY    72  68  87 W13G18    29.94R
RED OAK *      MOSUNNY   72  68  88 W9        29.93F
SHENANDOAH *   MOSUNNY   72  68  88 SW10      29.95S
$$

IAZ047>049-059>061-072>074-084-201800-
   CENTRAL IOWA

CITY           SKY/WX    TMP DP  RH WIND       PRES   REMARKS
AMES           LGT RAIN  71  68  90 SW10G21   29.86F
ANKENY *       LGT RAIN  73  66  78 N14       29.86F
CHARITON *     CLOUDY    73  68  83 W13       29.93R
DES MOINES     PTSUNNY   78  66  66 NW15      29.89S HX  80
GRINNELL*      PTSUNNY   75  66  73 W10       29.90S
KNOXVILLE *    MOSUNNY   75  68  78 W16       29.90R
MARSHALLTOWN   PTSUNNY   69  66  90 SW18      29.84F
PELLA *        PTSUNNY   77  68  73 W12       29.92R
PERRY *        LGT RAIN  72  66  83 SW7       29.87F
$$

IAZ004>006-015-016-023>025-035-036-201800-
   NORTH CENTRAL IOWA

CITY           SKY/WX    TMP DP  RH WIND       PRES   REMARKS
ALGONA *       SUNNY     75  63  64 W13       29.88S
CLARION *        N/A     75  64  69 W12G21    29.86F
ESTHERVILLE    SUNNY     74  59  59 NW12      29.87F
FORT DODGE *   MOSUNNY   77  66  69 W12G17    29.88F
MASON CITY     MOSUNNY   74  64  71 W14       29.86F
FOREST CITY *  SUNNY     73  63  68 W13       29.85F
IOWA FALLS *     N/A     73  64  73 W14       29.87R
$$

IAZ007>011-017>019-026>030-037>042-050>054-066-201800-
   NORTHEAST IOWA

CITY           SKY/WX    TMP DP  RH WIND       PRES   REMARKS
CEDAR RAPIDS   CLOUDY    70  67  90 SW7       29.89R
CHARLES CITY * SUNNY     72  64  78 W10G17    29.84F
CLINTON *      PTSUNNY   73  64  73 W10       29.91R
DECORAH *      SUNNY     66  64  94 W6G12     29.81F
DUBUQUE        PTSUNNY   73  63  70 SW15G25   29.86S
MONTICELLO *   CLOUDY    73  64  73 W9G17     29.86F
OELWEIN *      DRIZZLE   66  64  94 SW7       29.84S
WATERLOO       CLOUDY    69  64  84 CALM      29.82F
$$

IAZ064-065-067-068-078-201800-
   EAST CENTRAL IOWA

CITY           SKY/WX    TMP DP  RH WIND       PRES   REMARKS
DAVENPORT      CLOUDY    74  64  71 W9        29.90R
IOWA CITY      CLOUDY    73  68  84 W9        29.90R
MT. PLEASANT * CLOUDY    77  66  69 W9G17     29.90F
MUSCATINE *    PTSUNNY   77  68  73 W17       29.89S
QUAD CITIES    CLOUDY    73  65  75 SW8       29.88R
$$

IAZ062-063-075>077-085>089-095>099-201800-
   SOUTHEAST IOWA

CITY           SKY/WX    TMP DP  RH WIND       PRES   REMARKS
BURLINGTON     CLOUDY    75  68  78 SW12G17   29.91R
FAIRFIELD *    MOSUNNY   79  68  69 SW14G22   29.90F HX  81
FORT MADISON * PTSUNNY   79  68  69 SW10G16   29.92R HX  81
KEOKUK *       MOSUNNY   75  68  78 SW20G25   29.91R
OSKALOOSA *      N/A     75  68  78 W13G22    29.90S
CENTERVILLE *  PTSUNNY   72  70  94 SW8       29.93S
OTTUMWA        PTSUNNY   76  67  73 W15G21    29.90S
WASHINGTON *   CLOUDY    77  70  78 W13G20    29.90S
$$

ABBREVIATIONS USED IN REMARKS
   TC - TEMPERATURES IN CELSIUS
  WCI - WIND CHILL INDEX
   HX - HEAT INDEX
  VSB - VISIBILITY
$$



USA.gov is the U.S. government's official web portal to all federal, state and local government web resources and services.